Skip Page Navigation
NASA JPL Caltech
NASA Logo - Jet Propulsion Laboratory + View the NASA Portal
+ Center for Near-Earth Object Studies
JPL Home Earth Solar System Stars & Galaxies Technology
JPL Solar System Dynamics
BODIES ORBITS EPHEMERIDES TOOLS PHYSICAL DATA DISCOVERY FAQ SITE MAP
JPL Small-Body Database Browser
Search: [ help ]  
11916 Wiesloch (1992 ST17)
Classification: Main-belt Asteroid          SPK-ID: 2011916
Ephemeris | Orbit Diagram | Orbital Elements | Mission Design | Physical Parameters | Discovery Circumstances | Close-Approach Data ]

[ show orbit diagram ]
Orbital Elements at Epoch 2459200.5 (2020-Dec-17.0) TDB
Reference: JPL 29 (heliocentric ecliptic J2000)
 Element Value Uncertainty (1-sigma)   Units 
e .06390038789066303 2.7248e-08  
a 2.369380656271143 7.4343e-09 au
q 2.217976313274784 6.2534e-08 au
i 6.235619741847037 3.692e-06 deg
node 178.4763378241566 2.9595e-05 deg
peri 300.2903890739407 4.4609e-05 deg
M 157.9137020768227 3.3029e-05 deg
tp 2458616.156793948730
(2019-May-12.65679395)
0.00012181 TDB
period 1332.14250196046
3.65
6.2697e-06
1.717e-08
d
yr
n .2702413589163342 1.2719e-09 deg/d
Q 2.520784999267503 7.9093e-09 au
  Orbit Determination Parameters
   # obs. used (total)      2107  
   data-arc span      10192 days (27.90 yr)  
   first obs. used      1992-09-21  
   last obs. used      2020-08-17  
   planetary ephem.      DE441  
   SB-pert. ephem.      SB441-N16  
   condition code      0  
   norm. resid. RMS      .49979  
   source      ORB  
   producer      Otto Matic  
   solution date      2021-Apr-12 23:01:46  

Additional Information
 Earth MOID = 1.24091 au 
 Jupiter MOID = 2.5156 au 
 T_jup = 3.535 
[ show covariance matrix ]

Ephemeris | Orbit Diagram | Orbital Elements | Mission Design | Physical Parameters | Discovery Circumstances | Close-Approach Data ]

Physical Parameter Table
Parameter Symbol Value Units Sigma Reference Notes
absolute magnitude H 14.25   n/a E2021B10  
diameter diameter 4.397 km 0.325 urn:nasa:pds:neowise_diameters_albedos::2.0[mainbelt] (http://adsabs.harvard.edu/abs/2011ApJ...741...68M)  
rotation period rot_per 16.6677 h n/a LCDB (Rev. 2020-October); Warner et al., 2009 Result based on less than full coverage, so that the period may be wrong by 30 percent or so.
Published Reference List:
[Pal, A.; Szakats, R.; Kiss, C.; Bodi, A.; et al. (2019) Ap. J. Supl. Ser. 247, id.26.]
geometric albedo albedo 0.159   0.031 urn:nasa:pds:neowise_diameters_albedos::2.0[mainbelt] (http://adsabs.harvard.edu/abs/2011ApJ...741...68M)  

11916 Wiesloch           Discovered 1992 Sept. 24 by L. D. Schmadel and F. Borngen at Tautenburg.
The city of Wiesloch celebrates the 1200th anniversary of its first documented mention in mid-2001. Situated some 16 km south of the famous Heidelberg-Königstuhl Observatory, it became the home town of the first discoverer more than 30 years ago.
NOTE: some special characters may not display properly (any characters within {} are an attempt to place the proper accent above a character)
Reference: 20010804/MPCPages.arcLast Updated: 2009-05-11

[ show close-approach data ]
Alternate Designations
 1992 ST17 = 1998 HG56 
Ephemeris | Orbit Diagram | Orbital Elements | Mission Design | Physical Parameters | Discovery Circumstances | Close-Approach Data ]
ABOUT SSD CREDITS/AWARDS PRIVACY/COPYRIGHT GLOSSARY LINKS
FirstGov 2021-Apr-19 20:20 UT
(server date/time)  
NASA Home Page
Site Manager:   Ryan S. Park
Webmaster  Alan B. Chamberlin